Tracking 20753 objects as of 7-Jun-2020
HD Live streaming from Space Station
objects crossing your sky now
Track the most recent launched group of Starlink satellites

RADUGA 1-7

Track RADUGA 1-7 now!
RADUGA 1-7 is classified as:


NORAD ID: 28194
Int'l Code: 2004-010A
Perigee: 35,812.6 km
Apogee: 35,830.5 km
Inclination: 11.1 °
Period: 1,437.5 minutes
Semi major axis: 42192 km
RCS: 12.5893 m2 (large)
Launch date: March 27, 2004
Source: Commonwealth of Independent States (former USSR) (CIS)
Launch site: TYURATAM MISSILE AND SPACE COMPLEX (TTMTR)

Military communication.
aabbcc
Your satellite tracking list
Your tracking list is empty




NASA's NSSDC Master Catalog

Two Line Element Set (TLE):
1 28194U 04010A   20157.75744160 +.00000055 +00000-0 +00000-0 0  9998
2 28194 011.1023 037.0997 0002118 325.8239 221.2036 01.00172781059325
Source of the keplerian elements: AFSPC